Regional Weather Roundup
Issued by NWS Portland, ME

Current Version | Previous Version | Text Only | Print | Product List | Glossary Off
Versions: 1 2 3 4 5 6 7 8 9 10 11 12 13 14 15 16 17 18 19 20 21 22 23 24 25 26 27 28 29 30 31 32 33 34 35 36 37 38 39 40 41 42 43 44 45 46 47 48 49 50
000 ASUS41 KGYX 070910 RWRGYX WEATHER ROUNDUP FOR MAINE AND NEW HAMPSHIRE NATIONAL WEATHER SERVICE GRAY ME 400 AM EST SUN MAR 07 2021 MEZ002-005-006-010-012-015-018-020-021-024-026-027-029-071000- MAINE CITY SKY/WX TMP DP RH WIND PRES REMARKS PORTLAND CLEAR 14 8 77 CALM 30.17R SANFORD CLEAR 9 6 88 W3 30.17R BAR HARBOR CLEAR 15 7 70 CALM 30.15R WISCASSET CLEAR 11 6 81 CALM 30.18R ROCKLAND CLEAR 11 7 84 CALM 30.17R FRYEBURG CLEAR 0 -4 83 CALM 30.14R LEWISTONAUBURN CLEAR 7 3 84 CALM 30.16R AUGUSTA CLEAR 13 4 67 W5 30.14R WATERVILLE CLEAR 10 4 76 SW3 30.11R BANGOR CLEAR 14 4 64 W6 30.12R GREENVILLE N/A 10 1 67 NW13G18 29.97R WCI -5 MILLINOCKET CLEAR 14 4 64 W5 30.07R HOULTON PTCLDY 11 3 70 W7 30.02R PRESQUE ISLE MOCLDY 13 5 70 NW5 30.03R FRENCHVILLE CLEAR 7 1 76 NW9 29.97R CARIBOU CLEAR 11 1 64 NW6 30.00R $$ NHZ002-005-008-009-011-012-014-071000- NEW HAMPSHIRE CITY SKY/WX TMP DP RH WIND PRES REMARKS PORTSMOUTH CLEAR 19 1 46 W7 30.17R ROCHESTER CLEAR 15 4 61 W3 30.15R NASHUA CLEAR 19 6 57 W3 30.20R MANCHESTER PTCLDY 20 4 50 W5 30.17R CONCORD CLEAR 17 4 56 W7 30.17R LACONIA CLEAR 13 5 70 SW8 30.15R PLYMOUTH FAIR 15 4 61 W7 30.16R BERLIN CLEAR 5 0 79 CALM 30.10R WHITEFIELD CLEAR 1 -4 79 CALM 30.13R JAFFREY CLOUDY 16 4 59 CALM 30.13R KEENE CLOUDY 16 7 67 SW3 30.19R LEBANON MOCLDY 19 6 57 N3 30.17R MT WASHINGTON PTCLDY 0 -11 60 NW33 N/A WCI -27 $$ VTZ005-007-008-071000- VERMONT CITY SKY/WX TMP DP RH WIND PRES REMARKS ST JOHNSBURY N/A 5 1 83 MISG 30.17R MONTPELIER CLEAR 10 3 73 CALM 30.17R BURLINGTON CLOUDY 13 6 74 CALM 30.22R $$ MAZ007-012-024-CTZ003-RIZ002-NYZ038-NYZ072-071000- SOUTHERN NEW ENGLAND AND NY CITY SKY/WX TMP DP RH WIND PRES REMARKS BOSTON MOCLDY 24 6 46 NW9 30.20R WORCESTER MOCLDY 15 3 59 W7 30.14R NANTUCKET N/A N/A N/A N/A MISG N/A PROVIDENCE CLEAR 21 6 52 NW9 30.21R HARTFORD MOCLDY 22 7 52 NW3 30.22R ALBANY PTCLDY 18 11 74 NW5 30.23R NEW YORK CITY MOCLDY 31 14 49 NW12 30.24R $$ ANZ081-ANZ082-ANZ150-NHZ014-MEZ023>029-071000- COASTAL MARINE OBSERVATIONS STATION/POSITION TIME TEMP WIND PRES WAVE AIR SEA DIR/SP/G HT/PER (UTC) (F) (DEG/KT/KT) (MB) (FT/S) MOUNT DESERT ROC 0900 280/ 8/ 10 1020.9R ISLE OF SHOALS 0900 21 280/ 17/ 19 1021.5R JEFFREYS LEDGE 0826 42 N/A 3/ 5 CASHES LEDGE BUO 0850 25 41 1021.1R 4/ 5 $$ .............KEY.............. WCI - WIND CHILL TC - TEMPERATURE IN CELSIUS VSB - VISIBILITY IN MILES HX - HEAT INDEX FAIR- INDICATES FEW OR NO CLOUDS BELOW 12,000 FT, WITH NO SIGNIFICANT WEATHER AND/OR OBSTRUCTIONS TO VISIBILITY.

USA.gov is the U.S. government's official web portal to all federal, state and local government web resources and services.